This is the latest recevied weather packets stored in our database for station/object N2QKV-13. If no packets are shown the sender has not sent any weather packets the latest 10 day(s).
| Time | Temp. | Humidity | Pressure | Rain* | Wind** | Luminosity | Snow |
|---|---|---|---|---|---|---|---|
| 1777915804 | 22.78° C | 34% | 1011.7 hPa | 0 mm | - | - | - |
| 1777915503 | 23.33° C | 35% | 1011.8 hPa | 0 mm | - | - | - |
| 1777915204 | 23.33° C | 33% | 1011.8 hPa | 0 mm | - | - | - |
| 1777914903 | 23.33° C | 33% | 1011.9 hPa | 0 mm | - | - | - |
| 1777914604 | 23.33° C | 34% | 1011.9 hPa | 0 mm | - | - | - |
| 1777914303 | 22.22° C | 34% | 1012 hPa | 0 mm | - | - | - |
| 1777914004 | 22.78° C | 35% | 1012 hPa | 0 mm | - | - | - |
| 1777913704 | 22.22° C | 34% | 1012.1 hPa | 0 mm | - | - | - |
| 1777913403 | 22.22° C | 34% | 1012.2 hPa | 0 mm | - | - | - |
| 1777913104 | 22.78° C | 35% | 1012.2 hPa | 0 mm | - | - | - |
| 1777912804 | 22.22° C | 35% | 1012.4 hPa | 0 mm | - | - | - |
| 1777912503 | 22.78° C | 35% | 1012.4 hPa | 0 mm | - | - | - |
| 1777912203 | 22.22° C | 34% | 1012.4 hPa | 0 mm | - | - | - |
| 1777911904 | 22.22° C | 38% | 1012.6 hPa | 0 mm | - | - | - |
| 1777911604 | 21.67° C | 35% | 1012.7 hPa | 0 mm | - | - | - |
| 1777911304 | 21.67° C | 36% | 1012.7 hPa | 0 mm | - | - | - |
| 1777911003 | 21.67° C | 36% | 1012.7 hPa | 0 mm | - | - | - |
| 1777910703 | 21.67° C | 35% | 1012.9 hPa | 0 mm | - | - | - |
| 1777910403 | 21.67° C | 35% | 1012.9 hPa | 0 mm | - | - | - |
| 1777910103 | 21.67° C | 36% | 1012.8 hPa | 0 mm | - | - | - |
| 1777909804 | 21.11° C | 39% | 1012.9 hPa | 0 mm | - | - | - |
| 1777909504 | 21.11° C | 37% | 1013.1 hPa | 0 mm | - | - | - |
| 1777909204 | 21.11° C | 39% | 1013.2 hPa | 0 mm | - | - | - |
| 1777908904 | 21.11° C | 39% | 1013.1 hPa | 0 mm | - | - | - |
| 1777908603 | 21.11° C | 41% | 1013.2 hPa | 0 mm | - | - | - |
* Rain latest hour (hover to see other rain measurements)
** Current wind speed in m/s (hover to see current wind gust speed)